軌道要素
Epoch 2005 Apr. 20.0 TT = JDT 2453480.5
T 2005 Apr. 3.64857 TT Nakano
q 0.8498667 (2000.0) P Q
z -0.0000003 Peri. 181.64797 +0.06967368 +0.05437946
+/-0.0000087 Node 93.90377 -0.90345198 +0.42682916
e 1.0000003 Incl. 86.76154 -0.42298947 -0.90269582
>From 829 observations 2003 Oct. 13-2005 Mar. 31, mean residual 0".62.
Nongravitational parameters Y1 = +8.83 +/- 0.06, Y2 = -0.34 +/- 0.03.
|